KF0WJA Weather Reports


time (UTC)temp
C
wind
direction
speed
KPH
gust
KPH
rain 1hr
cm
rain 24hr
cm
rain mn
cm
humidity
%
barometer
mb
20260906201250 37 101 14.5 20.9 0.00 0.00 0.00 38 1015.4
20260906200746 38 111 6.4 8.0 0.00 0.00 0.00 37 1015.5
20260906200242 38 176 3.2 3.2 0.00 0.00 0.00 37 1015.3
20260906195737 38 213 4.8 9.7 0.00 0.00 0.00 36 1015.5
20260906195233 37 161 4.8 8.0 0.00 0.00 0.00 37 1015.6
20260906194729 36 154 3.2 3.2 0.00 0.00 0.00 39 1015.8
20260906194224 36 164 1.6 3.2 0.00 0.00 0.00 39 1015.5
20260906193720 36 165 1.6 1.6 0.00 0.00 0.00 38 1015.8
20260906193220 36 206 8.0 8.0 0.00 0.00 0.00 38 1015.8
20260906192716 36 205 4.8 4.8 0.00 0.00 0.00 38 1015.9
20260906192210 36 151 1.6 1.6 0.00 0.00 0.00 37 1016.1
20260906191710 36 165 3.2 3.2 0.00 0.00 0.00 38 1016.0
20260906191204 36 180 3.2 3.2 0.00 0.00 0.00 38 1016.0
20260906190704 37 151 3.2 3.2 0.00 0.00 0.00 38 1016.1
20260906190159 36 131 6.4 8.0 0.00 0.00 0.00 38 1016.1
20260906185658 36 176 6.4 8.0 0.00 0.00 0.00 38 1016.1
20260906185157 37 140 8.0 9.7 0.00 0.00 0.00 37 1016.0
20260906184651 38 216 17.7 22.5 0.00 0.00 0.00 37 1016.0
20260906184147 38 301 6.4 8.0 0.00 0.00 0.00 34 1016.2
20260906183642 37 191 4.8 4.8 0.00 0.00 0.00 36 1016.3
20260906183139 37 176 4.8 4.8 0.00 0.00 0.00 37 1016.7
20260906182638 37 270 11.3 11.3 0.00 0.00 0.00 36 1016.6
20260906182135 37 161 3.2 3.2 0.00 0.00 0.00 37 1016.7
20260906181630 36 240 9.7 11.3 0.00 0.00 0.00 39 1016.7
20260906181126 37 283 11.3 14.5 0.00 0.00 0.00 36 1016.8
20260906180621 37 314 9.7 11.3 0.00 0.00 0.00 38 1017.0
20260906180121 37 94 3.2 3.2 0.00 0.00 0.00 38 1017.2
20260906175619 36 316 6.4 8.0 0.00 0.00 0.00 38 1017.4
20260906175114 37 139 4.8 8.0 0.00 0.00 0.00 38 1017.6
20260906174612 36 195 6.4 8.0 0.00 0.00 0.00 39 1017.7
20260906174107 37 327 6.4 8.0 0.00 0.00 0.00 38 1017.5
20260906173602 37 293 6.4 8.0 0.00 0.00 0.00 39 1017.6
20260906173058 37 186 8.0 11.3 0.00 0.00 0.00 39 1017.9
20260906172558 36 207 3.2 3.2 0.00 0.00 0.00 40 1018.0
20260906172054 35 255 4.8 4.8 0.00 0.00 0.00 42 1018.1
20260906171553 36 201 4.8 4.8 0.00 0.00 0.00 40 1018.3
20260906171049 36 208 4.8 4.8 0.00 0.00 0.00 39 1018.0
20260906170544 36 148 1.6 3.2 0.00 0.00 0.00 39 1018.3
20260906170043 36 88 3.2 4.8 0.00 0.00 0.00 40 1018.4
20260906165540 36 148 1.6 1.6 0.00 0.00 0.00 39 1018.2
20260906165035 36 158 0.0 1.6 0.00 0.00 0.00 40 1018.1
20260906164534 36 283 9.7 11.3 0.00 0.00 0.00 39 1018.2
20260906164031 37 159 1.6 3.2 0.00 0.00 0.00 39 1018.4
20260906163526 36 144 1.6 1.6 0.00 0.00 0.00 39 1018.2
20260906163021 36 124 0.0 1.6 0.00 0.00 0.00 41 1018.4
20260906162518 37 342 8.0 9.7 0.00 0.00 0.00 39 1018.5
20260906162013 36 254 4.8 8.0 0.00 0.00 0.00 39 1018.3
20260906161508 36 139 1.6 1.6 0.00 0.00 0.00 39 1018.5
20260906161007 36 25 8.0 9.7 0.00 0.00 0.00 40 1018.4
20260906160506 35 333 6.4 8.0 0.00 0.00 0.00 41 1018.3
20260906160005 36 7 8.0 11.3 0.00 0.00 0.00 40 1018.4
20260906155503 35 102 4.8 4.8 0.00 0.00 0.00 41 1018.5
20260906154959 35 125 3.2 3.2 0.00 0.00 0.00 43 1018.4
20260906154455 35 217 4.8 4.8 0.00 0.00 0.00 42 1018.3
20260906153953 35 200 4.8 4.8 0.00 0.00 0.00 42 1018.2
20260906153452 35 267 6.4 8.0 0.00 0.00 0.00 42 1018.4
20260906152947 35 252 6.4 8.0 0.00 0.00 0.00 42 1018.3
20260906152447 35 148 3.2 4.8 0.00 0.00 0.00 44 1018.3
20260906151946 35 218 6.4 8.0 0.00 0.00 0.00 43 1018.5
20260906151442 35 173 4.8 4.8 0.00 0.00 0.00 43 1018.2
20260906150938 35 161 4.8 8.0 0.00 0.00 0.00 43 1018.2
20260906150433 35 199 6.4 8.0 0.00 0.00 0.00 43 1018.2
20260906145932 34 184 3.2 4.8 0.00 0.00 0.00 44 1018.2
20260906145432 34 134 3.2 3.2 0.00 0.00 0.00 45 1018.2
20260906144927 34 188 4.8 4.8 0.00 0.00 0.00 45 1018.1
20260906144427 33 176 3.2 3.2 0.00 0.00 0.00 46 1018.1
20260906143923 33 219 6.4 8.0 0.00 0.00 0.00 46 1018.2
20260906143418 33 147 1.6 1.6 0.00 0.00 0.00 46 1018.0
20260906142914 33 160 3.2 3.2 0.00 0.00 0.00 47 1018.2
20260906142413 33 171 3.2 3.2 0.00 0.00 0.00 48 1018.3
20260906141908 32 137 0.0 1.6 0.00 0.00 0.00 51 1018.2
20260906141408 32 140 1.6 3.2 0.00 0.00 0.00 52 1018.2
20260906140902 31 138 1.6 3.2 0.00 0.00 0.00 53 1018.2
20260906140356 31 163 3.2 3.2 0.00 0.00 0.00 54 1018.3
20260906135855 31 140 3.2 3.2 0.00 0.00 0.00 55 1018.1
20260906135354 30 159 3.2 3.2 0.00 0.00 0.00 56 1018.1
20260906134850 30 158 3.2 3.2 0.00 0.00 0.00 57 1018.3
20260906134345 30 136 3.2 3.2 0.00 0.00 0.00 58 1018.1
20260906133840 29 146 3.2 4.8 0.00 0.00 0.00 59 1018.0
20260906133336 29 152 1.6 1.6 0.00 0.00 0.00 60 1018.2
20260906132831 28 147 3.2 3.2 0.00 0.00 0.00 61 1018.0
20260906132326 28 134 3.2 4.8 0.00 0.00 0.00 62 1017.9
20260906131822 27 135 1.6 1.6 0.00 0.00 0.00 64 1018.1
20260906131317 27 134 4.8 4.8 0.00 0.00 0.00 65 1017.9
20260906130813 27 138 0.0 0.0 0.00 0.00 0.00 65 1017.9
20260906130313 27 125 0.0 0.0 0.00 0.00 0.00 67 1018.0
20260906125812 26 128 0.0 0.0 0.00 0.00 0.00 69 1017.7
20260906125310 26 129 0.0 0.0 0.00 0.00 0.00 70 1017.7
20260906124810 25 125 0.0 0.0 0.00 0.00 0.00 72 1017.5
20260906124306 25 131 0.0 0.0 0.00 0.00 0.00 74 1017.5
20260906123804 24 130 0.0 0.0 0.00 0.00 0.00 74 1017.4
20260906123300 24 131 0.0 0.0 0.00 0.00 0.00 74 1017.2
20260906122759 24 140 0.0 0.0 0.00 0.00 0.00 75 1017.4
20260906122255 24 139 0.0 0.0 0.00 0.00 0.00 75 1017.1
20260906121752 23 139 0.0 0.0 0.00 0.00 0.00 75 1017.2
20260906121247 23 139 0.0 0.0 0.00 0.00 0.00 77 1017.0
20260906120743 23 147 0.0 0.0 0.00 0.00 0.00 77 1017.3
20260906120240 23 136 0.0 1.6 0.00 0.00 0.00 77 1016.9
20260906115735 22 141 1.6 1.6 0.00 0.00 0.00 78 1016.8
20260906115230 22 128 1.6 3.2 0.00 0.00 0.00 78 1016.7
20260906114729 23 130 0.0 0.0 0.00 0.00 0.00 78 1016.8
20260906114224 23 124 0.0 0.0 0.00 0.00 0.00 77 1016.6
20260906113720 23 131 0.0 0.0 0.00 0.00 0.00 77 1016.6
20260906113219 23 127 0.0 0.0 0.00 0.00 0.00 77 1016.5
20260906112718 23 131 0.0 0.0 0.00 0.00 0.00 77 1016.3
20260906112216 23 127 0.0 0.0 0.00 0.00 0.00 77 1016.7
20260906111715 22 130 0.0 0.0 0.00 0.00 0.00 78 1016.7
20260906111209 22 129 0.0 0.0 0.00 0.00 0.00 78 1016.8
20260906110705 23 131 0.0 0.0 0.00 0.00 0.00 78 1016.5
20260906110200 23 133 0.0 0.0 0.00 0.00 0.00 77 1016.5
20260906105654 23 138 0.0 0.0 0.00 0.00 0.00 76 1016.6
20260906105150 23 125 1.6 3.2 0.00 0.00 0.00 76 1016.6
20260906104649 23 127 0.0 0.0 0.00 0.00 0.00 77 1016.6
20260906104149 23 124 0.0 0.0 0.00 0.00 0.00 76 1016.3
20260906103647 23 132 0.0 0.0 0.00 0.00 0.00 76 1016.3
20260906103142 23 130 0.0 0.0 0.00 0.00 0.00 77 1016.6
20260906102637 23 132 0.0 0.0 0.00 0.00 0.00 77 1016.3
20260906102137 23 129 0.0 0.0 0.00 0.00 0.00 76 1016.7
20260906101637 23 134 0.0 0.0 0.00 0.00 0.00 76 1016.6
20260906101137 23 137 0.0 0.0 0.00 0.00 0.00 75 1016.3
20260906100633 23 128 0.0 0.0 0.00 0.00 0.00 74 1016.6
20260906100128 24 136 0.0 0.0 0.00 0.00 0.00 72 1016.5
20260906095628 24 138 0.0 0.0 0.00 0.00 0.00 72 1016.5
20260906095123 23 143 0.0 0.0 0.00 0.00 0.00 73 1016.5
20260906094622 23 141 0.0 0.0 0.00 0.00 0.00 73 1016.5
20260906094118 23 146 0.0 0.0 0.00 0.00 0.00 73 1016.7
20260906093615 23 143 0.0 0.0 0.00 0.00 0.00 74 1016.5
20260906093114 23 137 0.0 0.0 0.00 0.00 0.00 73 1016.6
20260906092609 24 132 0.0 0.0 0.00 0.00 0.00 73 1016.5
20260906092104 24 128 1.6 1.6 0.00 0.00 0.00 72 1016.2
20260906091600 24 128 0.0 0.0 0.00 0.00 0.00 71 1016.2
20260906091057 24 132 0.0 0.0 0.00 0.00 0.00 72 1016.3
20260906090556 24 133 0.0 0.0 0.00 0.00 0.00 72 1016.3
20260906090057 24 135 0.0 0.0 0.00 0.00 0.00 71 1016.5
20260906085555 25 127 0.0 0.0 0.00 0.00 0.00 70 1016.5
20260906085050 25 134 0.0 0.0 0.00 0.00 0.00 70 1016.3
20260906084545 24 131 0.0 0.0 0.00 0.00 0.00 72 1016.3
20260906084043 24 134 0.0 0.0 0.00 0.00 0.00 72 1016.3
20260906083539 24 133 0.0 0.0 0.00 0.00 0.00 71 1016.3
20260906083039 25 133 0.0 0.0 0.00 0.00 0.00 71 1016.2
20260906082534 25 131 0.0 0.0 0.00 0.00 0.00 69 1016.1
20260906082030 26 133 0.0 0.0 0.00 0.00 0.00 66 1015.9
20260906081526 26 136 0.0 0.0 0.00 0.00 0.00 66 1016.1
20260906081021 26 136 1.6 1.6 0.00 0.00 0.00 66 1016.5
20260906080518 26 141 1.6 1.6 0.00 0.00 0.00 65 1016.2
20260906080014 26 137 3.2 3.2 0.00 0.00 0.00 65 1016.2
20260906075513 26 137 4.8 4.8 0.00 0.00 0.00 65 1016.3
20260906075008 26 146 3.2 3.2 0.00 0.00 0.00 66 1016.0
20260906074503 26 145 3.2 3.2 0.00 0.00 0.00 67 1016.1
20260906074001 25 152 0.0 0.0 0.00 0.00 0.00 68 1015.9
20260906073456 26 139 0.0 0.0 0.00 0.00 0.00 68 1015.9
20260906072952 25 134 0.0 0.0 0.00 0.00 0.00 66 1016.0
20260906072447 25 132 0.0 0.0 0.00 0.00 0.00 66 1016.0
20260906071943 26 130 0.0 0.0 0.00 0.00 0.00 66 1016.1
20260906071439 26 138 0.0 0.0 0.00 0.00 0.00 66 1016.0
20260906070935 26 139 0.0 0.0 0.00 0.00 0.00 65 1016.0
20260906070431 26 141 0.0 0.0 0.00 0.00 0.00 65 1016.0
20260906065927 26 136 0.0 0.0 0.00 0.00 0.00 65 1016.0
20260906065420 26 140 0.0 0.0 0.00 0.00 0.00 65 1016.0
20260906064916 26 137 1.6 1.6 0.00 0.00 0.00 64 1015.7
20260906064413 26 144 3.2 3.2 0.00 0.00 0.00 63 1015.9
20260906063913 26 153 1.6 1.6 0.00 0.00 0.00 62 1015.8
20260906063408 26 140 1.6 1.6 0.00 0.00 0.00 63 1015.8
20260906062903 26 135 0.0 0.0 0.00 0.00 0.00 64 1015.8
20260906062402 26 139 0.0 0.0 0.00 0.00 0.00 64 1016.2
20260906061857 26 141 0.0 0.0 0.00 0.00 0.00 65 1016.1
20260906061354 26 142 0.0 0.0 0.00 0.00 0.00 65 1016.1
20260906060848 26 144 0.0 0.0 0.00 0.00 0.00 64 1016.2
20260906060346 26 137 0.0 0.0 0.00 0.00 0.00 64 1016.2
20260906055842 26 140 0.0 0.0 0.00 0.00 0.00 64 1016.3
20260906055337 26 139 0.0 0.0 0.00 0.00 0.00 64 1016.2
20260906054832 26 142 1.6 1.6 0.00 0.00 0.00 64 1016.3
20260906054327 26 140 0.0 0.0 0.00 0.00 0.00 64 1016.2
20260906053824 26 144 0.0 0.0 0.00 0.00 0.00 64 1016.2
20260906053319 26 135 0.0 0.0 0.00 0.00 0.00 65 1016.3
20260906052814 26 133 0.0 0.0 0.00 0.00 0.00 65 1016.3
20260906052311 26 136 1.6 1.6 0.00 0.00 0.00 65 1016.3
20260906051808 26 139 0.0 0.0 0.00 0.00 0.00 64 1016.3
20260906051307 27 139 0.0 0.0 0.00 0.00 0.00 64 1016.3
20260906050802 27 143 0.0 0.0 0.00 0.00 0.00 63 1016.2
20260906050257 27 144 0.0 0.0 0.00 0.00 0.00 63 1016.6
20260906045756 27 140 0.0 0.0 0.00 0.00 0.00 62 1016.3
20260906045251 27 140 0.0 0.0 0.00 0.00 0.00 62 1016.3
20260906044747 27 142 0.0 0.0 0.00 0.00 0.00 61 1016.1
20260906044242 27 146 3.2 3.2 0.00 0.00 0.00 61 1016.1
20260906043738 27 145 1.6 3.2 0.00 0.00 0.00 61 1016.3
20260906043233 27 143 3.2 3.2 0.00 0.00 0.00 61 1016.3
20260906042733 27 163 4.8 4.8 0.00 0.00 0.00 61 1016.1
20260906042232 27 146 3.2 3.2 0.00 0.00 0.00 61 1016.2
20260906041728 27 139 1.6 3.2 0.00 0.00 0.00 60 1016.2
20260906041223 28 140 3.2 3.2 0.00 0.00 0.00 60 1016.0
20260906040719 28 137 1.6 3.2 0.00 0.00 0.00 59 1016.1
20260906040214 28 142 3.2 3.2 0.00 0.00 0.00 58 1016.2
20260906035709 28 165 6.4 8.0 0.00 0.00 0.00 57 1016.2
20260906035205 28 161 3.2 3.2 0.00 0.00 0.00 58 1015.9
20260906034704 28 157 6.4 8.0 0.00 0.00 0.00 59 1015.9
20260906034159 28 147 4.8 4.8 0.00 0.00 0.00 59 1016.0
20260906033655 28 157 3.2 3.2 0.00 0.00 0.00 59 1015.9
20260906033156 28 148 3.2 3.2 0.00 0.00 0.00 59 1015.8
20260906032652 28 163 3.2 3.2 0.00 0.00 0.00 58 1015.9
20260906032146 28 158 0.0 0.0 0.00 0.00 0.00 59 1015.8
20260906031641 28 160 0.0 0.0 0.00 0.00 0.00 58 1015.9
20260906031137 28 148 0.0 0.0 0.00 0.00 0.00 58 1015.7
20260906030636 28 161 0.0 0.0 0.00 0.00 0.00 59 1015.7
20260906030132 28 148 0.0 0.0 0.00 0.00 0.00 58 1015.8
20260906025631 28 148 1.6 1.6 0.00 0.00 0.00 57 1015.8
20260906025130 29 142 1.6 1.6 0.00 0.00 0.00 57 1015.9
20260906024625 29 149 3.2 3.2 0.00 0.00 0.00 56 1015.7
20260906024119 29 159 3.2 3.2 0.00 0.00 0.00 56 1015.6
20260906023615 29 154 3.2 3.2 0.00 0.00 0.00 56 1015.4
20260906023109 29 158 0.0 0.0 0.00 0.00 0.00 56 1015.4
20260906022605 29 153 0.0 0.0 0.00 0.00 0.00 56 1015.3
20260906022100 30 151 0.0 0.0 0.00 0.00 0.00 55 1015.2
20260906021556 30 156 0.0 0.0 0.00 0.00 0.00 55 1015.1
20260906021054 30 147 0.0 0.0 0.00 0.00 0.00 54 1015.1
20260906020554 30 152 0.0 0.0 0.00 0.00 0.00 55 1015.2
20260906020054 29 161 0.0 0.0 0.00 0.00 0.00 55 1015.1
20260906015554 30 147 0.0 0.0 0.00 0.00 0.00 55 1015.0
20260906015053 30 139 3.2 3.2 0.00 0.00 0.00 54 1014.7
20260906014548 30 143 0.0 0.0 0.00 0.00 0.00 54 1014.6
20260906014044 30 146 0.0 0.0 0.00 0.00 0.00 54 1014.7
20260906013539 30 148 0.0 0.0 0.00 0.00 0.00 55 1014.7
20260906013035 30 144 0.0 0.0 0.00 0.00 0.00 53 1014.5
20260906012530 30 148 0.0 0.0 0.00 0.00 0.00 53 1014.6
20260906012029 30 157 0.0 0.0 0.00 0.00 0.00 52 1014.3
20260906011525 31 180 0.0 0.0 0.00 0.00 0.00 52 1014.3
20260906011025 31 151 0.0 0.0 0.00 0.00 0.00 50 1014.3
20260906010520 31 146 0.0 0.0 0.00 0.00 0.00 50 1014.2
20260906010017 31 134 1.6 1.6 0.00 0.00 0.00 50 1014.2
20260906005516 32 143 1.6 3.2 0.00 0.00 0.00 48 1014.2
20260906005015 32 146 1.6 1.6 0.00 0.00 0.00 47 1014.2
20260906004514 32 150 1.6 3.2 0.00 0.00 0.00 47 1014.4
20260906004009 32 161 3.2 3.2 0.00 0.00 0.00 46 1014.3
20260906003505 32 154 3.2 3.2 0.00 0.00 0.00 46 1014.3
20260906003001 33 170 4.8 4.8 0.00 0.00 0.00 44 1014.3
20260906002501 33 155 4.8 4.8 0.00 0.00 0.00 44 1014.1
20260906001956 33 153 3.2 3.2 0.00 0.00 0.00 44 1014.3
20260906001452 33 163 3.2 3.2 0.00 0.00 0.00 43 1014.3
20260906000946 34 151 1.6 1.6 0.00 0.00 0.00 42 1014.3
20260906000442 34 156 6.4 9.7 0.00 0.00 0.00 41 1014.2
20260905235941 35 169 3.2 3.2 0.00 0.00 0.00 41 1014.1
20260905235436 35 167 3.2 3.2 0.00 0.00 0.00 40 1014.2
20260905234931 35 168 3.2 3.2 0.00 0.00 0.00 39 1014.4
20260905234427 36 156 4.8 8.0 0.00 0.00 0.00 38 1014.5
20260905233926 36 157 4.8 4.8 0.00 0.00 0.00 37 1014.2
20260905233422 36 172 4.8 4.8 0.00 0.00 0.00 37 1014.2
20260905232921 36 155 8.0 9.7 0.00 0.00 0.00 37 1014.2
20260905232417 36 151 8.0 9.7 0.00 0.00 0.00 37 1014.1
20260905231912 36 171 4.8 8.0 0.00 0.00 0.00 38 1014.2
20260905231408 37 181 4.8 8.0 0.00 0.00 0.00 37 1013.9
20260905230905 37 193 4.8 4.8 0.00 0.00 0.00 35 1014.1
20260905230403 37 189 8.0 11.3 0.00 0.00 0.00 35 1014.2
20260905225901 37 166 3.2 3.2 0.00 0.00 0.00 36 1014.3
20260905225356 36 156 9.7 11.3 0.00 0.00 0.00 37 1014.4
20260905224852 36 178 14.5 16.1 0.00 0.00 0.00 37 1014.4
20260905224347 36 168 6.4 8.0 0.00 0.00 0.00 36 1014.3
20260905223842 37 155 4.8 8.0 0.00 0.00 0.00 36 1014.3
20260905223340 37 147 4.8 8.0 0.00 0.00 0.00 35 1014.1
20260905222840 37 197 8.0 9.7 0.00 0.00 0.00 35 1014.1
20260905222338 37 170 8.0 9.7 0.00 0.00 0.00 35 1014.1
20260905221835 37 152 11.3 16.1 0.00 0.00 0.00 35 1014.2
20260905221331 38 180 8.0 11.3 0.00 0.00 0.00 35 1013.9
20260905220827 38 193 8.0 11.3 0.00 0.00 0.00 35 1014.1
20260905220323 38 190 8.0 11.3 0.00 0.00 0.00 34 1014.2
20260905215822 38 202 11.3 12.9 0.00 0.00 0.00 33 1014.1
20260905215318 38 177 6.4 8.0 0.00 0.00 0.00 34 1014.1
20260905214814 38 169 12.9 12.9 0.00 0.00 0.00 33 1013.9
20260905214309 37 148 8.0 9.7 0.00 0.00 0.00 34 1013.9
20260905213804 37 141 9.7 11.3 0.00 0.00 0.00 35 1013.9
20260905213300 38 137 3.2 3.2 0.00 0.00 0.00 35 1014.1
20260905212755 38 214 8.0 8.0 0.00 0.00 0.00 35 1014.2
20260905212255 38 128 14.5 20.9 0.00 0.00 0.00 35 1014.3
20260905211755 38 190 3.2 4.8 0.00 0.00 0.00 33 1014.2
20260905211250 38 197 4.8 8.0 0.00 0.00 0.00 32 1014.6
20260905210747 37 187 6.4 8.0 0.00 0.00 0.00 33 1014.5
20260905210246 38 169 4.8 4.8 0.00 0.00 0.00 32 1014.7
20260905205745 38 173 12.9 14.5 0.00 0.00 0.00 32 1014.8
20260905205240 37 158 4.8 4.8 0.00 0.00 0.00 34 1014.7
20260905204740 38 134 6.4 9.7 0.00 0.00 0.00 33 1014.8
20260905204236 38 188 3.2 4.8 0.00 0.00 0.00 32 1014.9
20260905203735 38 140 4.8 4.8 0.00 0.00 0.00 33 1015.1
20260905203230 37 182 4.8 8.0 0.00 0.00 0.00 35 1015.2
20260905202726 37 144 11.3 12.9 0.00 0.00 0.00 34 1015.0
20260905202221 37 129 12.9 16.1 0.00 0.00 0.00 36 1015.1
20260905201717 37 160 9.7 11.3 0.00 0.00 0.00 35 1015.2